Welcome to the New NWS' Forecast!
Most changes are behind the scenes, but click here for differences you might notice.
Latest weather observations around

WX6HNX-15 Boron (AU536)

Using English Units (Switch to International System of Units)
Date/ Time (PDT) Wind (mph) Vis. (mi) Weather Sky Cond. Temp (°F) Rel. Humidity Wind Chill (°F) Heat Index (°F) Pressure Precip. (in)
Air Dwpt 6 hour Altimeter (inHg) Sea level (inHg) 1 hr 3 hr 6 hr
Max Min
Sep 24 10:14 E 2   Clear   68 28     22%     30.01        
Sep 24 10:08 ESE 2   Clear   67 29     24%     30.01        
Sep 24 10:02 Calm   Clear   66 29     25%     30.01        
Sep 24 09:59 Calm   Clear   66 29     25%     30.01        
Sep 24 09:53 Calm   Clear   65 30     27%     30.01        
Sep 24 09:47 Calm   Clear   63 29     28%     30.01        
Sep 24 09:44 Calm   Clear   63 30     29%     30.01        
Sep 24 09:38 Calm   Clear   62 30     30%     30.01        
Sep 24 09:32 Calm   Clear   62 31     31%     30.01        
Sep 24 09:29 Calm   Clear   61 30     31%     30.01        
Sep 24 09:21 Calm   Clear   60 30     32%     30.01        
Sep 24 09:18 W 1   Clear   60 31     33%     30.01        
Sep 24 09:12 W 1   Clear   60 32     35%     30.01        
Sep 24 09:09 Calm   Clear   59 31     35%     30.01        
Sep 24 09:03 Calm   Clear   59 32     36%     30.01        
Sep 24 08:57 WNW 1   Clear   59 33     37%     30.01        
Sep 24 08:54 WNW 1   Clear   58 33     38%     30.01        
Sep 24 08:48 Calm   Clear   57 32     39%     30.01        
Sep 24 08:42 W 2   Clear   57 32     39%     30.01        
Sep 24 08:39 W 3   Clear   57 32     39%     30.01        
Sep 24 08:33 W 1   Clear   56 31     39%     30.01        
Sep 24 08:27 W 1   Clear   56 31     38%     30.01        
Sep 24 08:24 W 1   Clear   56 32     40%     30.01        
Sep 24 08:18 Calm   Clear   55 31     40%     30.01        
Sep 24 08:11 Calm   Clear   53 31     43%     30        
Sep 24 08:08 Calm   Clear   52 31     44%     30        
Sep 24 08:02 Calm   Clear   51 31     46%     30        
Sep 24 07:59 Calm   Clear   50 31     47%     30        
Sep 24 07:53 Calm   Clear   48 30     49%     30        
Sep 24 07:47 Calm   Clear   47 30     51%     30        
Sep 24 07:41 Calm   Clear   45 29     53%     29.99        
Sep 24 07:38 Calm   Clear   45 29     54%     29.99        
Sep 24 07:32 Calm   Clear   44 29     56%     29.99        
Sep 24 07:26 Calm   Clear   42 28     57%     29.99        
Sep 24 07:23 Calm   Clear   42 28     58%     29.99        
Sep 24 07:17 Calm   Clear   41 28     59%     29.99        
Sep 24 07:14 Calm   Clear   41 27     58%     29.99        
Sep 24 07:08 Calm   Clear   40 27     60%     29.98        
Sep 24 07:02 Calm   Clear   40 28     61%     29.98        
Sep 24 06:59 Calm   Clear   40 28     61%     29.98        
Sep 24 06:53 SSE 1   Clear   40 28     61%     29.98        
Sep 24 06:47 Calm   Clear   40 27     60%     29.98        
Sep 24 06:44 Calm   Clear   40 27     59%     29.98        
Sep 24 06:38 Calm   Clear   41 28     59%     29.97        
Sep 24 06:32 Calm   Clear   41 28     59%     29.97        
Sep 24 06:29 Calm   Clear   41 28     60%     29.97        
Sep 24 06:23 Calm   Clear   41 28     60%     29.97        
Sep 24 06:17 Calm   Clear   41 28     60%     29.97        
Sep 24 06:14 Calm   Clear   41 29     61%     29.97        
Sep 24 06:08 SSE 1   Clear   41 29     61%     29.97        
Sep 24 06:02 Calm   Clear   41 28     60%     29.96        
Sep 24 05:59 SSE 1   Clear   41 29     61%     29.96        
Sep 24 05:53 SSE 1   Clear   41 28     60%     29.96        
Sep 24 05:47 Calm   Clear   41 28     59%     29.96        
Sep 24 05:44 Calm   Clear   42 29     59%     29.96        
Sep 24 05:38 Calm   Clear   42 29     59%     29.96        
Sep 24 05:32 Calm   Clear   42 29     59%     29.96        
Sep 24 05:29 Calm   Clear   42 29     59%     29.96        
Sep 24 05:23 Calm   Clear   43 30     59%     29.96        
Sep 24 05:17 SSE 1   Clear   43 29     58%     29.95        
Sep 24 05:14 SSE 1   Clear   43 30     59%     29.95        
Sep 24 05:08 SSE 1   Clear   43 30     60%     29.95        
Sep 24 05:04 Calm   Clear   43 30     60%     29.95        
Sep 24 04:58 Calm   Clear   43 30     60%     29.95        
Sep 24 04:55 Calm   Clear   43 30     60%     29.94        
Sep 24 04:48 Calm   Clear   43 30     59%     29.94        
Sep 24 04:42 Calm   Clear   43 29     58%     29.94        
Sep 24 04:39 Calm   Clear   44 30     57%     29.94        
Sep 24 04:33 Calm   Clear   44 29     56%     29.94        
Sep 24 04:28 Calm   Clear   44 29     56%     29.94        
Sep 24 04:22 Calm   Clear   45 31     57%     29.94        
Sep 24 04:19 Calm   Clear   45 31     57%     29.94        
Sep 24 04:13 Calm   Clear   45 31     58%     29.94        
Sep 24 04:07 SE 3   Clear   45 31     57% 44   29.93        
Sep 24 04:04 SE 1   Clear   45 31     57%     29.93        
Sep 24 03:59 Calm   Clear   45 31     57%     29.94        
Sep 24 03:53 SE 1   Clear   45 31     58%     29.94        
Sep 24 03:49 Calm   Clear   45 31     57%     29.94        
Sep 24 03:44 Calm   Clear   45 31     57%     29.94        
Sep 24 03:37 Calm   Clear   45 31     58%     29.93        
Sep 24 03:34 Calm   Clear   45 31     57%     29.93        
Sep 24 03:28 Calm   Clear   45 30     56%     29.93        
Sep 24 03:23 Calm   Clear   46 31     55%     29.93        
Sep 24 03:19 Calm   Clear   46 30     54%     29.93        
Sep 24 03:12 Calm   Clear   46 31     56%     29.93        
Sep 24 03:09 Calm   Clear   46 31     56%     29.93        
Sep 24 03:03 Calm   Clear   46 31     55%     29.93        
Sep 24 02:57 Calm   Clear   47 31     53%     29.92        
Sep 24 02:54 Calm   Clear   47 31     53%     29.92        
Sep 24 02:48 Calm   Clear   47 31     54%     29.92        
Sep 24 02:42 Calm   Clear   48 32     54%     29.93        
Sep 24 02:39 Calm   Clear   48 32     54%     29.93        
Sep 24 02:33 Calm   Clear   48 32     53%     29.92        
Sep 24 02:27 Calm   Clear   48 32     53%     29.92        
Sep 24 02:24 Calm   Clear   48 31     52%     29.92        
Sep 24 02:18 Calm   Clear   49 33     53%     29.92        
Sep 24 02:12 Calm   Clear   49 33     53%     29.92        
Sep 24 02:09 Calm   Clear   49 33     53%     29.92        
Sep 24 02:03 Calm   Clear   49 33     53%     29.92        
Sep 24 01:57 Calm   Clear   49 33     53%     29.92        
Sep 24 01:54 Calm   Clear   49 33     53%     29.92        
Sep 24 01:48 Calm   Clear   50 33     52%     29.92        
Sep 24 01:42 Calm   Clear   50 34     53%     29.92        
Sep 24 01:39 Calm   Clear   50 33     51%     29.92        
Sep 24 01:33 Calm   Clear   50 33     51%     29.92        
Sep 24 01:27 Calm   Clear   50 33     52%     29.92        
Sep 24 01:24 Calm   Clear   50 33     51%     29.92        
Sep 24 01:18 Calm   Clear   50 32     50%     29.92        
Sep 24 01:12 Calm   Clear   51 33     50%     29.91        
Sep 24 01:09 Calm   Clear   51 33     50%     29.91        
Sep 24 00:54 Calm   Clear   52 34     50%     29.91        
Sep 24 00:48 W 1   Clear   52 33     49%     29.91        
Sep 24 00:42 W 1   Clear   52 33     49%     29.91        
Sep 24 00:37 WNW 2   Clear   53 34     48%     29.91        
Sep 24 00:34 W 2   Clear   53 34     48%     29.91        
Sep 24 00:28 W 2   Clear   53 34     48%     29.91        
Sep 24 00:25 W 2   Clear   53 34     48%     29.91        
Sep 24 00:19 W 1   Clear   53 34     48%     29.91        
Sep 24 00:13 W 1   Clear   54 34     46%     29.91        
Sep 24 00:10 W 1   Clear   54 34     46%     29.91        
Sep 24 00:04 Calm   Clear   54 33     45%     29.91        
Sep 23 23:58 WSW 2   Clear   54 33     45%     29.91        
Sep 23 23:55 SW 2   Clear   54 33     45%     29.91        
Sep 23 23:49 Calm   Clear   54 33     45%     29.91        
Sep 23 23:43 WSW 1   Clear   54 33     44%     29.91        
Sep 23 23:40 Calm   Clear   54 33     44%     29.91        
Sep 23 23:34 WSW 1   Clear   55 33     44%     29.9        
Sep 23 23:28 W 2   Clear   55 33     43%     29.91        
Sep 23 23:25 W 1   Clear   55 33     43%     29.9        
Sep 23 23:19 Calm   Clear   55 33     43%     29.9        
Sep 23 23:10 W 3   Clear   56 33     42%     29.9        
Sep 23 23:02 W 2   Clear   56 33     41%     29.9        
Sep 23 22:59 W 2   Clear   56 33     41%     29.9        
Sep 23 22:53 W 1   Clear   57 33     40%     29.9        
Sep 23 22:50 W 1   Clear   57 32     39%     29.9        
Sep 23 22:44 W 1   Clear   58 33     38%     29.9        
Sep 23 22:38 Calm   Clear   59 33     38%     29.89        
Sep 23 22:35 Calm   Clear   59 33     37%     29.89        
Sep 23 22:29 WSW 1   Clear   59 33     38%     29.89        
Sep 23 22:23 WSW 3   Clear   59 33     37%     29.89        
Sep 23 22:20 WSW 4   Clear   60 34     37%     29.89        
Sep 23 22:14 W 4   Clear   60 33     36%     29.88        
Sep 23 22:08 W 3   Clear   60 33     36%     29.88        
Sep 23 22:05 WSW 6   Clear   60 33     36%     29.88        
Sep 23 21:59 WSW 3   Clear   60 33     36%     29.88        
Sep 23 21:53 WSW 5   Clear   60 33     36%     29.88        
Sep 23 21:50 SW 6   Clear   60 33     36%     29.88        
Sep 23 21:44 SW 4   Clear   60 33     36%     29.88        
Sep 23 21:37 WSW 3   Clear   60 33     36%     29.87        
Sep 23 21:34 WSW 2   Clear   61 33     35%     29.87        
Sep 23 21:29 Calm   Clear   61 34     36%     29.87        
Sep 23 21:23 Calm   Clear   61 33     35%     29.87        
Sep 23 21:18 WNW 1   Clear   62 34     35%     29.87        
Sep 23 21:14 WNW 2   Clear   62 33     34%     29.87        
Sep 23 21:08 WNW 4   Clear   62 34     35%     29.87        
Sep 23 21:02 WNW 6   Clear   62 33     34%     29.87        
Sep 23 20:59 NW 7   Clear   62 33     34%     29.87        
Sep 23 20:53 WNW 7   Clear   62 33     34%     29.87        
Sep 23 20:48 WNW 7   Clear   63 34     34%     29.87        
Sep 23 20:44 WNW 6   Clear   63 33     33%     29.87        
Sep 23 20:38 NW 5   Clear   63 33     33%     29.87        
Sep 23 20:32 NW 6   Clear   63 33     33%     29.87        
Sep 23 20:29 NW 6   Clear   63 33     32%     29.87        
Sep 23 20:23 NW 7   Clear   64 34     32%     29.87        
Sep 23 20:17 NW 6   Clear   64 34     32%     29.87        
Sep 23 20:14 NW 7   Clear   64 33     31%     29.87        
Sep 23 20:08 NW 4   Clear   64 33     31%     29.87        
Sep 23 20:02 NW 7   Clear   65 34     31%     29.87        
Sep 23 19:59 NW 6   Clear   65 34     31%     29.87        
Sep 23 19:53 NW 5   Clear   65 33     30%     29.86        
Sep 23 19:47 NW 7   Clear   65 33     30%     29.86        
Sep 23 19:44 WNW 3   Clear   66 33     29%     29.86        
Sep 23 19:38 NW 5   Clear   66 33     29%     29.86        
Sep 23 19:32 WNW 7   Clear   66 33     29%     29.85        
Sep 23 19:29 WNW 8   Clear   67 34     29%     29.85        
Sep 23 19:23 NW 4   Clear   67 32     27%     29.85        
Sep 23 19:17 WNW 8   Clear   68 29     23%     29.85        
Sep 23 19:14 SW 1   Clear   68 28     22%     29.85        
Sep 23 19:08 SW 1   Clear   69 29     22%     29.84        
Sep 23 19:02 Calm   Clear   69 27     21%     29.84        
Sep 23 18:56 Calm   Clear   70 28     21%     29.84        
Sep 23 18:53 SW 1   Clear   70 28     21%     29.84        
Sep 23 18:47 SW 1   Clear   71 28     20%   69 29.84        
Sep 23 18:44 Calm   Clear   72 29     20%   70 29.84        
Sep 23 18:38 Calm   Clear   73 28     19%   71 29.84        
Sep 23 18:32 Calm   Clear   73 27     18%   71 29.84        
Sep 23 18:29 Calm   Clear   74 28     18%   72 29.84        
Sep 23 18:23 NW 1   Clear   74 28     18%   72 29.84        
Sep 23 18:17 Calm   Clear   74 28     18%   72 29.84        
Sep 23 18:14 NW 2   Clear   74 28     18%   72 29.84        
Sep 23 18:08 NW 1   Clear   75 27     17%   73 29.84        
Sep 23 17:59 WNW 2   Clear   75 27     17%   73 29.84        
Sep 23 17:53 NW 5   Clear   75 29     18%   73 29.83        
Sep 23 17:47 W 3   Clear   75 27     17%   73 29.84        
Sep 23 17:44 WNW 3   Clear   75 27     17%   73 29.83        
Sep 23 17:38 W 7   Clear   75 27     17%   73 29.84        
Sep 23 17:32 W 1   Clear   75 29     18%   73 29.83        
Sep 23 17:29 WSW 3   Clear   75 29     18%   73 29.84        
Sep 23 17:23 Calm   Clear   75 29     18%   73 29.84        
Sep 23 17:17 SW 1   Clear   75 27     17%   73 29.83        
Sep 23 17:14 WSW 4   Clear   75 27     17%   73 29.84        
Sep 23 17:08 NW 3   Clear   75 27     17%   73 29.84        
Sep 23 17:02 W 5   Clear   76 28     17%   74 29.84        
Sep 23 16:59 Calm   Clear   76 28     17%   74 29.84        
Sep 23 16:53 WNW 4   Clear   75 27     17%   73 29.84        
Sep 23 16:47 WSW 3   Clear   76 28     17%   74 29.84        
Sep 23 16:44 WNW 7   Clear   76 28     17%   74 29.84        
Sep 23 16:38 Calm   Clear   76 28     17%   74 29.84        
Sep 23 16:32 WNW 8   Clear   76 28     17%   74 29.84        
Sep 23 16:29 Calm   Clear   76 28     17%   74 29.84        
Sep 23 16:23 Calm   Clear   76 28     17%   74 29.84        
Sep 23 16:17 WSW 3   Clear   75 27     17%   73 29.84        
Sep 23 16:14 NW 6   Clear   75 27     17%   73 29.84        
Sep 23 16:08 SW 1   Clear   76 28     17%   74 29.84        
Sep 23 16:02 WSW 4   Clear   77 27     16%   75 29.84        
Sep 23 15:59 SW 2   Clear   78 28     16%   76 29.84        
Sep 23 15:52 Calm   Clear   78 28     16%   76 29.84        
Sep 23 15:49 NNW 3   Clear   78 28     16%   76 29.84        
Sep 23 15:44 N 5   Clear   78 28     16%   76 29.85        
Sep 23 15:38 NNW 5   Clear   77 29     17%   75 29.85        
Sep 23 15:35 NNW 9   Clear   77 29     17%   75 29.85        
Sep 23 15:29 NNW 5   Clear   75 29     18%   73 29.85        
Sep 23 15:23 SSW 2   Clear   75 29     18%   73 29.85        
Sep 23 15:17 WNW 7   Clear   76 29     18%   74 29.85        
Sep 23 15:14 W 6   Clear   77 29     17%   75 29.85        
Sep 23 15:08 WNW 6   Clear   77 30     18%   75 29.85        
Sep 23 15:02 ESE 1   Clear   78 30     17%   76 29.85        
Sep 23 14:59 Calm   Clear   78 30     17%   76 29.85        
Sep 23 14:53 NNW 8   Clear   77 30     18%   75 29.85        
Sep 23 14:47 NW 6   Clear   76 29     18%   74 29.86        
Sep 23 14:44 NW 8   Clear   76 29     18%   74 29.86        
Sep 23 14:38 WNW 9   Clear   77 30     18%   75 29.86        
Sep 23 14:32 NNW 3   Clear   76 29     18%   74 29.86        
Sep 23 14:29 NNW 1   Clear   77 30     18%   75 29.86        
Sep 23 14:23 N 4   Clear   76 31     19%   74 29.86        
Sep 23 14:20 WNW 5   Clear   76 31     19%   74 29.86        
Sep 23 14:14 NW 3   Clear   75 30     19%   73 29.86        
Sep 23 14:08 WNW 5   Clear   74 30     20%   72 29.86        
Sep 23 14:02 WNW 8   Clear   74 30     20%   72 29.85        
Sep 23 13:59 W 7   Clear   74 30     20%   72 29.85        
Sep 23 13:53 WNW 8   Clear   74 30     20%   72 29.86        
Sep 23 13:47 WNW 6   Clear   73 30     20%   71 29.86        
Sep 23 13:44 WSW 3   Clear   73 30     20%   71 29.86        
Sep 23 13:38 WNW 5   Clear   73 30     20%   71 29.86        
Sep 23 13:29 W 5   Clear   74 29     19%   72 29.86        
Sep 23 13:23 NW 9   Clear   75 30     19%   73 29.86        
Sep 23 13:17 NW 6   Clear   75 31     20%   73 29.86        
Sep 23 13:14 WNW 4   Clear   75 30     19%   73 29.86        
Sep 23 13:08 NW 7   Clear   75 31     20%   73 29.86        
Sep 23 13:02 NW 3   Clear   75 31     20%   73 29.87        
Sep 23 12:59 NW 7   Clear   75 32     21%   73 29.87        
Sep 23 12:53 NNW 5   Clear   73 31     21%   71 29.87        
Sep 23 12:47 NW 3   Clear   73 31     21%   71 29.87        
Sep 23 12:44 NW 2   Clear   73 31     21%   71 29.87        
Sep 23 12:38 NNW 4   Clear   74 32     21%   72 29.88        
Sep 23 12:32 NNE 4   Clear   75 32     21%   73 29.88        
Sep 23 12:29 ENE 6   Clear   75 32     21%   73 29.88        
Sep 23 12:23 N 3   Clear   74 32     21%   72 29.88        
Sep 23 12:17 NNE 6   Clear   73 32     22%   71 29.88        
Sep 23 12:11 NNW 2   Clear   72 31     22%   70 29.88        
Sep 23 12:08 ENE 4   Clear   72 32     23%   70 29.88        
Sep 23 12:02 NE 5   Clear   71 31     23%   69 29.89        
Sep 23 11:56 NNW 2   Clear   71 31     23%   69 29.88        
Sep 23 11:53 SSE 1   Clear   72 32     23%   70 29.88        
Sep 23 11:47 E 7   Clear   72 32     23%   70 29.88        
Sep 23 11:41 ENE 5   Clear   72 32     23%   70 29.89        
Sep 23 11:38 NE 6   Clear   72 32     23%   70 29.89        
Sep 23 11:32 N 7   Clear   72 32     23%   70 29.89        
Sep 23 11:29 NE 6   Clear   71 32     24%   69 29.89        
Sep 23 11:23 E 6   Clear   71 32     24%   69 29.89        
Sep 23 11:17 NNE 4   Clear   71 32     24%   69 29.9        
Sep 23 11:14 NE 7   Clear   71 32     24%   69 29.9        
Sep 23 11:08 ENE 3   Clear   71 33     25%   69 29.9        
Sep 23 11:02 NNE 3   Clear   70 33     25%     29.9        
Sep 23 10:56 ENE 4   Clear   69 33     26%     29.9        
Sep 23 10:53 E 5   Clear   69 34     27%     29.9        
Sep 23 10:47 Calm   Clear   68 34     28%     29.9        
Sep 23 10:44 WSW 1   Clear   68 34     28%     29.9        
Sep 23 10:38 Calm   Clear   69 35     28%     29.9        
Sep 23 10:32 Calm   Clear   67 34     29%     29.9        
Sep 23 10:29 Calm   Clear   67 35     30%     29.9        
Sep 23 10:23 NE 1   Clear   65 34     31%     29.9        
Sep 23 10:17 Calm   Clear   64 34     33%     29.9        
Sep 23 10:14 Calm   Clear   63 34     34%     29.9        
Sep 23 10:08 Calm   Clear   62 34     35%     29.9        
Sep 23 10:02 Calm   Clear   62 34     35%     29.9        
Sep 23 09:59 W 2   Clear   62 35     36%     29.9        
Sep 23 09:51 W 2   Clear   61 35     37%     29.9        
Sep 23 09:47 WNW 2   Clear   61 33     35%     29.9        
Sep 23 09:44 W 2   Clear   60 34     37%     29.88        
Sep 23 09:39 W 1   Clear   59 34     39%     29.88        
Sep 23 09:32 W 3   Clear   59 35     40%     29.88        
Sep 23 09:29 WNW 2   Clear   59 35     40%     29.88        
Sep 23 09:23 WSW 2   Clear   59 35     40%     29.88        
Sep 23 09:17 WNW 2   Clear   58 34     41%     29.87        
Sep 23 09:14 W 2   Clear   58 34     41%     29.87        
Sep 23 09:08 W 2   Clear   58 35     42%     29.88        
Sep 23 09:02 WNW 6   Clear   58 36     43%     29.88        
Sep 23 08:59 W 3   Clear   57 35     43%     29.88        
Sep 23 08:52 W 3   Clear   57 35     44%     29.88        
Sep 23 08:49 W 3   Clear   57 35     44%     29.88        
Sep 23 08:43 W 2   Clear   56 36     46%     29.87        
Sep 23 08:37 W 4   Clear   55 35     47%     29.87        
Sep 23 08:34 W 1   Clear   55 36     48%     29.87        
Sep 23 08:28 W 2   Clear   54 36     50%     29.87        
Sep 23 08:23 WNW 1   Clear   53 35     51%     29.87        
Sep 23 08:14 W 3   Clear   52 35     52%     29.87        
Sep 23 08:07 WNW 2   Clear   51 34     52%     29.87        
Sep 23 08:04 WNW 3   Clear   51 34     53%     29.86        
Sep 23 07:58 W 3   Clear   50 34     54% 50   29.86        
Sep 23 07:52 W 3   Clear   50 34     55% 50   29.86        
Sep 23 07:49 W 4   Clear   49 34     55% 48   29.86        
Sep 23 07:43 WNW 2   Clear   49 34     56%     29.86        
Sep 23 07:37 WNW 1   Clear   48 34     57%     29.86        
Sep 23 07:34 WNW 1   Clear   48 34     57%     29.86        
Sep 23 07:25 W 1   Clear   47 33     58%     29.85        
Sep 23 07:22 W 1   Clear   47 33     58%     29.85        
Sep 23 07:19 W 2   Clear   47 33     59%     29.85        
Sep 23 07:13 W 2   Clear   46 32     59%     29.85        
Sep 23 07:07 W 1   Clear   46 32     59%     29.85        
Sep 23 07:04 Calm   Clear   46 33     60%     29.85        
Sep 23 06:55 W 2   Clear   45 32     60%     29.84        
Sep 23 06:52 W 3   Clear   45 32     61% 44   29.84        
Sep 23 06:49 W 2   Clear   45 32     60%     29.84        
Sep 23 06:43 W 3   Clear   45 32     60% 44   29.84        
Sep 23 06:37 W 2   Clear   45 32     59%     29.84        
Sep 23 06:34 WNW 2   Clear   45 31     58%     29.84        
Sep 23 06:28 W 3   Clear   45 32     60% 44   29.84        
Sep 23 06:22 W 2   Clear   45 31     58%     29.84        
Sep 23 06:19 W 2   Clear   45 32     59%     29.83        
Sep 23 06:13 W 1   Clear   45 32     60%     29.83        
Sep 23 06:07 Calm   Clear   45 32     59%     29.83        
Sep 23 06:04 Calm   Clear   46 32     59%     29.83        
Sep 23 05:58 W 1   Clear   46 32     58%     29.83        
Sep 23 05:52 W 1   Clear   46 32     58%     29.83        
Sep 23 05:49 Calm   Clear   46 32     58%     29.83        
Sep 23 05:43 W 2   Clear   46 32     58%     29.82        
Sep 23 05:37 W 2   Clear   46 32     57%     29.82        
Sep 23 05:34 W 1   Clear   47 33     57%     29.82        
Sep 23 05:28 W 2   Clear   47 32     56%     29.82        
Sep 23 05:22 WSW 1   Clear   47 33     57%     29.82        
Sep 23 05:19 Calm   Clear   47 33     57%     29.81        
Sep 23 05:13 WSW 1   Clear   47 32     55%     29.81        
Sep 23 05:07 SW 1   Clear   47 33     57%     29.81        
Sep 23 05:04 Calm   Clear   47 32     56%     29.81        
Sep 23 04:58 Calm   Clear   47 32     55%     29.81        
Sep 23 04:52 Calm   Clear   48 32     54%     29.81        
Sep 23 04:49 Calm   Clear   48 32     54%     29.81        
Sep 23 04:43 Calm   Clear   48 32     53%     29.8        
Sep 23 04:37 WSW 3   Clear   48 32     54% 47   29.8        
Sep 23 04:34 WSW 1   Clear   48 31     51%     29.8        
Sep 23 04:28 WSW 2   Clear   48 31     52%     29.8        
Sep 23 04:22 WSW 2   Clear   48 31     51%     29.81        
Sep 23 04:19 W 2   Clear   49 32     51%     29.8        
Sep 23 04:13 WSW 1   Clear   49 31     50%     29.8        
Sep 23 04:07 WSW 2   Clear   50 32     50%     29.83        
Sep 23 04:04 WSW 3   Clear   50 32     50% 50   29.83        
Sep 23 03:58 W 2   Clear   50 32     50%     29.83        
Sep 23 03:52 WNW 3   Clear   50 32     50% 50   29.83        
Sep 23 03:49 W 5   Clear   50 33     51% 48   29.83        
Sep 23 03:44 W 4   Clear   49 32     51% 48   29.83        
Sep 23 03:37 WNW 5   Clear   49 32     52% 47   29.83        
Sep 23 03:34 WNW 4   Clear   49 32     51% 48   29.83        
Sep 23 03:28 W 3   Clear   50 33     51% 50   29.83        
Sep 23 03:22 W 2   Clear   50 32     50%     29.83        
Sep 23 03:19 W 3   Clear   50 32     50% 50   29.83        
Sep 23 03:14 W 3   Clear   50 32     50% 50   29.83        
Sep 23 03:07 W 3   Clear   50 32     50% 50   29.83        
Sep 23 03:04 W 3   Clear   50 32     50% 50   29.83        
Sep 23 02:58 WNW 4   Clear   50 32     49% 49   29.83        
Sep 23 02:52 WNW 3   Clear   51 32     48%     29.83        
Sep 23 02:49 WNW 2   Clear   51 33     49%     29.83        
Sep 23 02:43 W 4   Clear   52 32     47%     29.83        
Sep 23 02:37 WSW 2   Clear   52 32     47%     29.83        
Sep 23 02:34 WSW 3   Clear   52 32     47%     29.83        
Sep 23 02:28 W 3   Clear   52 32     46%     29.83        
Sep 23 02:22 WSW 2   Clear   52 32     46%     29.83        
Sep 23 02:19 WSW 3   Clear   52 32     46%     29.83        
Sep 23 02:13 WSW 2   Clear   53 33     46%     29.83        
Sep 23 02:07 WSW 3   Clear   53 33     46%     29.83        
Sep 23 02:04 WSW 4   Clear   53 33     46%     29.83        
Sep 23 01:58 WSW 2   Clear   53 32     45%     29.83        
Sep 23 01:52 WSW 2   Clear   53 32     45%     29.83        
Sep 23 01:46 WSW 4   Clear   53 32     44%     29.83        
Sep 23 01:43 WSW 3   Clear   53 32     44%     29.83        
Sep 23 01:37 WSW 5   Clear   53 32     44%     29.83        
Sep 23 01:34 WSW 4   Clear   53 32     44%     29.83        
Sep 23 01:28 WSW 4   Clear   54 33     44%     29.8        
Sep 23 01:22 WSW 6   Clear   54 33     44%     29.8        
Sep 23 01:19 WSW 6   Clear   53 32     44%     29.8        
Sep 23 01:13 WSW 6   Clear   54 32     43%     29.8        
Sep 23 01:07 WSW 6   Clear   54 32     43%     29.8        
Sep 23 01:04 WSW 6   Clear   54 32     43%     29.8        
Sep 23 00:58 WSW 6   Clear   54 32     43%     29.8        
Sep 23 00:51 WSW 3   Clear   53 31     43%     29.8        
Sep 23 00:48 W 3   Clear   53 31     43%     29.8        
Sep 23 00:42 W 4   Clear   54 32     43%     29.8        
Sep 23 00:39 W 5   Clear   54 31     42%     29.8        
Sep 23 00:33 W 3   Clear   54 31     42%     29.8        
Sep 23 00:27 WSW 5   Clear   54 31     42%     29.8        
Sep 23 00:24 WSW 3   Clear   55 32     41%     29.8        
Sep 23 00:18 WSW 3   Clear   55 32     41%     29.8        
Sep 23 00:12 WSW 6   Clear   55 32     41%     29.8        
Sep 23 00:09 WSW 7   Clear   55 32     41%     29.8        
Sep 23 00:03 WSW 7   Clear   55 32     41%     29.8        
Sep 22 23:57 SW 9   Clear   55 32     41%     29.8        
Sep 22 23:54 SW 9   Clear   55 32     41%     29.79        
Sep 22 23:48 SW 10   Clear   54 31     41%     29.8        
Sep 22 23:42 SW 9   Clear   54 31     41%     29.79        
Sep 22 23:39 SW 8   Clear   54 31     41%     29.79        
Sep 22 23:33 SW 9   Clear   55 32     41%     29.8        
Sep 22 23:27 SW 8   Clear   55 31     40%     29.8        
Sep 22 23:24 WSW 6   Clear   55 31     40%     29.8        
Sep 22 23:18 SW 9   Clear   55 31     40%     29.8        
Sep 22 23:13 SW 8   Clear   55 31     40%     29.8        
Sep 22 23:09 WSW 7   Clear   55 31     40%     29.8        
Sep 22 23:03 WSW 5   Clear   55 31     40%     29.8        
Sep 22 22:57 WSW 7   Clear   55 31     40%     29.8        
Sep 22 22:54 WSW 7   Clear   55 31     40%     29.8        
Sep 22 22:48 SW 8   Clear   55 31     40%     29.8        
Sep 22 22:42 SW 7   Clear   55 31     40%     29.8        
Sep 22 22:39 SW 7   Clear   55 31     40%     29.8        
Sep 22 22:33 WSW 6   Clear   56 31     39%     29.8        
Sep 22 22:27 WSW 6   Clear   56 31     39%     29.8        
Sep 22 22:25 WSW 7   Clear   56 31     39%     29.8        
Sep 22 22:18 WSW 5   Clear   56 31     38%     29.8        
Sep 22 22:12 WSW 6   Clear   56 31     38%     29.8        
Sep 22 22:09 WSW 7   Clear   57 32     38%     29.8        
Sep 22 22:03 WSW 6   Clear   57 32     39%     29.79        
Sep 22 21:57 WSW 7   Clear   57 32     39%     29.8        
Sep 22 21:54 WSW 5   Clear   57 32     39%     29.79        
Sep 22 21:48 WSW 5   Clear   57 32     38%     29.79        
Sep 22 21:42 WSW 5   Clear   57 32     38%     29.79        
Sep 22 21:40 WSW 6   Clear   57 32     38%     29.79        
Sep 22 21:33 WSW 6   Clear   57 32     38%     29.79        
Sep 22 21:27 WSW 7   Clear   57 31     37%     29.79        
Sep 22 21:22 WSW 5   Clear   57 31     37%     29.79        
Sep 22 21:19 WSW 5   Clear   57 30     36%     29.79        
Sep 22 21:13 WSW 6   Clear   57 30     36%     29.8        
Sep 22 21:10 WSW 3   Clear   57 30     35%     29.8        
Sep 22 21:04 WSW 1   Clear   58 31     35%     29.8        
Sep 22 20:58 W 1   Clear   58 30     34%     29.8        
Sep 22 20:55 W 4   Clear   58 30     34%     29.8        
Sep 22 20:49 WNW 4   Clear   59 30     33%     29.8        
Sep 22 20:42 W 3   Clear   59 30     33%     29.8        
Sep 22 20:39 WSW 3   Clear   60 31     33%     29.8        
Sep 22 20:33 W 3   Clear   60 30     32%     29.8        
Sep 22 20:27 W 2   Clear   60 30     32%     29.79        
Sep 22 20:24 W 3   Clear   61 31     32%     29.79        
Sep 22 20:19 W 4   Clear   61 30     31%     29.79        
Sep 22 20:13 W 4   Clear   61 30     31%     29.79        
Sep 22 20:10 W 6   Clear   61 29     30%     29.79        
Sep 22 20:04 W 5   Clear   62 29     29%     29.79        
Sep 22 19:58 W 9   Clear   62 29     29%     29.79        
Sep 22 19:52 W 9   Clear   63 30     29%     29.79        
Sep 22 19:49 W 9   Clear   63 30     29%     29.78        
Sep 22 19:43 W 9   Clear   63 29     28%     29.78        
Sep 22 19:40 W 10   Clear   63 29     28%     29.78        
Sep 22 19:35 W 11   Clear   64 29     27%     29.78        
Sep 22 19:28 W 12   Clear   65 29     26%     29.78        
Sep 22 19:22 W 10   Clear   65 27     24%     29.77        
Sep 22 19:19 W 9   Clear   65 26     23%     29.77        
Sep 22 19:10 W 9   Clear   66 26     22%     29.77        
Sep 22 19:07 W 9   Clear   66 26     22%     29.77        
Sep 22 19:04 W 8   Clear   67 26     21%     29.77        
Sep 22 18:58 W 8   Clear   68 25     20%     29.76        
Sep 22 18:52 WSW 2   Clear   68 25     20%     29.76        
Sep 22 18:49 WSW 1   Clear   69 25     19%     29.76        
Sep 22 18:43 WSW 2   Clear   69 25     19%     29.76        
Sep 22 18:37 Calm   Clear   70 26     19%     29.76        
Sep 22 18:31 SW 1   Clear   70 26     19%     29.76        
Sep 22 18:28 SW 1   Clear   70 26     19%     29.76        
Sep 22 18:22 SSW 1   Clear   71 25     18%   69 29.76        
Sep 22 18:19 SSW 2   Clear   71 27     19%   69 29.76        
Sep 22 18:13 SSW 4   Clear   71 25     18%   69 29.76        
Sep 22 18:07 SSW 4   Clear   72 26     18%   70 29.76        
Sep 22 18:04 SW 3   Clear   72 26     18%   70 29.76        
Sep 22 17:58 Calm   Clear   72 26     18%   70 29.76        
Sep 22 17:52 Calm   Clear   72 25     17%   70 29.76        
Sep 22 17:49 Calm   Clear   72 25     17%   70 29.76        
Sep 22 17:43 WSW 1   Clear   72 25     17%   70 29.76        
Sep 22 17:40 WSW 2   Clear   72 25     17%   70 29.76        
Sep 22 17:34 SSW 2   Clear   72 25     17%   70 29.76        
Sep 22 17:25 Calm   Clear   72 26     18%   70 29.76        
Sep 22 17:22 WNW 3   Clear   72 26     18%   70 29.76        
Sep 22 17:19 Calm   Clear   72 26     18%   70 29.76        
Sep 22 17:13 SW 4   Clear   72 26     18%   70 29.76        
Sep 22 17:10 WSW 4   Clear   72 25     17%   70 29.76        
Sep 22 17:04 SSW 6   Clear   73 26     17%   71 29.76        
Sep 22 16:58 Calm   Clear   73 24     16%   71 29.76        
Sep 22 16:52 SW 1   Clear   73 24     16%   71 29.76        
Sep 22 16:49 WSW 1   Clear   73 24     16%   71 29.77        
Sep 22 16:43 WNW 5   Clear   73 24     16%   71 29.77        
Sep 22 16:37 W 9   Clear   73 24     16%   71 29.77        
Sep 22 16:34 W 7   Clear   73 24     16%   71 29.77        
Sep 22 16:28 SSW 1   Clear   73 24     16%   71 29.77        
Sep 22 16:22 SSW 4   Clear   74 25     16%   72 29.77        
Sep 22 16:19 WNW 2   Clear   74 25     16%   72 29.78        
Sep 22 16:13 NNE 3   Clear   75 24     15%   73 29.78        
Sep 22 16:07 NE 4   Clear   74 25     16%   72 29.77        
Sep 22 16:04 Calm   Clear   74 25     16%   72 29.78        
Sep 22 15:57 WNW 3   Clear   74 25     16%   72 29.78        
Sep 22 15:54 N 2   Clear   75 24     15%   73 29.78        
Sep 22 15:48 NW 1   Clear   73 24     16%   71 29.78        
Sep 22 15:42 WNW 3   Clear   73 24     16%   71 29.78        
Sep 22 15:39 WNW 4   Clear   73 24     16%   71 29.78        
Sep 22 15:33 Calm   Clear   73 24     16%   71 29.79        
Sep 22 15:27 W 2   Clear   74 25     16%   72 29.79        
Sep 22 15:24 NNW 3   Clear   74 25     16%   72 29.79        
Sep 22 15:18 NW 4   Clear   72 23     16%   70 29.79        
Sep 22 15:12 WNW 6   Clear   73 24     16%   71 29.8        
Sep 22 15:09 W 8   Clear   73 23     15%   71 29.8        
Sep 22 15:03 NW 3   Clear   74 25     16%   72 29.8        
Sep 22 14:57 E 1   Clear   72 25     17%   70 29.8        
Sep 22 14:51 Calm   Clear   71 24     17%   69 29.8        
Sep 22 14:48 SSW 1   Clear   71 24     17%   69 29.8        
Sep 22 14:42 W 2   Clear   71 24     17%   69 29.81        
Sep 22 14:39 WSW 1   Clear   71 24     17%   69 29.81        
Sep 22 14:33 W 4   Clear   72 25     17%   70 29.81        
Sep 22 14:27 SSW 3   Clear   72 25     17%   70 29.81        
Sep 22 14:24 SW 4   Clear   72 25     17%   70 29.81        
Sep 22 14:18 SSE 2   Clear   72 25     17%   70 29.81        
Sep 22 14:13 SSE 3   Clear   73 27     18%   71 29.82        
Sep 22 14:10 Calm   Clear   73 26     17%   71 29.82        
Sep 22 14:04 WNW 1   Clear   72 26     18%   70 29.82        
Sep 22 13:58 W 5   Clear   72 26     18%   70 29.82        
Sep 22 13:50 WNW 1   Clear   71 27     19%   69 29.82        
Sep 22 13:47 NW 4   Clear   71 28     20%   69 29.82        
Sep 22 13:44 WNW 5   Clear   71 27     19%   69 29.83        
Sep 22 13:38 WNW 5   Clear   70 27     20%     29.83        
Sep 22 13:32 NW 2   Clear   69 27     21%     29.83        
Sep 22 13:29 W 6   Clear   70 28     21%     29.83        
Sep 22 13:23 W 2   Clear   70 28     21%     29.83        
Sep 22 13:17 WSW 1   Clear   70 29     22%     29.83        
Sep 22 13:14 W 3   Clear   70 29     22%     29.84        
Sep 22 13:08 ESE 2   Clear   70 29     22%     29.84        
Sep 22 12:59 Calm   Clear   68 29     23%     29.84        
Sep 22 12:53 W 4   Clear   67 29     24%     29.85        
Sep 22 12:47 W 3   Clear   67 29     24%     29.85        
Sep 22 12:44 S 1   Clear   67 29     24%     29.85        
Sep 22 12:38 SSW 1   Clear   67 29     24%     29.85        
Sep 22 12:32 S 2   Clear   66 29     25%     29.85        
Sep 22 12:29 E 2   Clear   66 28     24%     29.85        
Sep 22 12:23 SW 4   Clear   67 29     24%     29.85        
Sep 22 12:17 SSE 3   Clear   66 29     25%     29.85        
Sep 22 12:14 Calm   Clear   66 29     25%     29.86        
Sep 22 12:08 SW 4   Clear   66 29     25%     29.86        
Sep 22 11:59 WNW 1   Clear   67 28     23%     29.86        
Sep 22 11:53 NW 2   Clear   68 30     24%     29.86        
Sep 22 11:47 WNW 3   Clear   68 30     24%     29.86        
Sep 22 11:44 SW 3   Clear   68 31     25%     29.86        
Sep 22 11:38 NW 3   Clear   67 31     26%     29.86        
Sep 22 11:32 Calm   Clear   67 31     26%     29.86        
Sep 22 11:29 NW 2   Clear   67 30     25%     29.87        
Sep 22 11:23 NW 2   Clear   66 32     28%     29.87        
Sep 22 11:17 NNW 3   Clear   65 33     30%     29.87        
Sep 22 11:14 WNW 1   Clear   64 32     30%     29.87        
Sep 22 11:08 WNW 4   Clear   64 33     31%     29.87        
Sep 22 11:02 WNW 4   Clear   64 34     32%     29.87        
Sep 22 10:59 WSW 2   Clear   64 34     32%     29.87        
Sep 22 10:53 WNW 4   Clear   63 33     33%     29.87        
Sep 22 10:47 WNW 4   Clear   63 35     35%     29.87        
Sep 22 10:44 W 3   Clear   63 36     36%     29.87        
Sep 22 10:38 WSW 3   Clear   62 35     37%     29.88        
Sep 22 10:32 W 3   Clear   62 35     37%     29.88        
Sep 22 10:29 W 5   Clear   62 35     37%     29.88        
Sep 22 10:23 NW 1   Clear   63 36     36%     29.88        
Sep 22 10:17 WNW 4   Clear   62 37     39%     29.88        
Sep 22 10:14 WNW 6   Clear   61 36     39%     29.88        
Sep 22 10:08 W 5   Clear   61 36     39%     29.88        
Sep 22 10:02 WNW 4   Clear   60 36     41%     29.88        
Sep 22 09:59 WNW 3   Clear   60 36     41%     29.88        
Sep 22 09:53 WNW 2   Clear   59 37     44%     29.88        
Sep 22 09:47 WNW 4   Clear   58 37     45%     29.88        
Sep 22 09:44 W 7   Clear   58 37     46%     29.88        
Sep 22 09:38 WNW 3   Clear   57 38     48%     29.88        
Sep 22 09:32 W 3   Clear   57 39     50%     29.88        
Sep 22 09:29 WSW 5   Clear   57 39     50%     29.88        
Sep 22 09:23 W 4   Clear   57 39     51%     29.88        
Sep 22 09:17 WSW 6   Clear   56 39     53%     29.88        
Sep 22 09:14 W 6   Clear   56 39     53%     29.88        
Sep 22 09:08 W 4   Clear   55 39     54%     29.88        
Sep 22 09:04 WSW 6   Clear   55 40     56%     29.88        
Sep 22 08:58 W 6   Clear   54 39     57%     29.87        
Sep 22 08:52 WSW 8   Clear   54 39     57%     29.87        
Sep 22 08:49 WSW 6   Clear   54 40     58%     29.87        
Sep 22 08:43 WSW 7   Clear   54 40     59%     29.87        
Sep 22 08:40 WSW 7   Clear   53 39     59%     29.87        
Sep 22 08:34 WSW 8   Clear   53 39     60%     29.86        
Sep 22 08:28 WSW 7   Clear   52 39     61%     29.86        
Sep 22 08:25 WSW 7   Clear   52 39     62%     29.86        
Sep 22 08:19 SW 7   Clear   52 40     63%     29.86        
Sep 22 08:13 WSW 7   Clear   52 40     63%     29.86        
Sep 22 08:10 WSW 7   Clear   51 39     63%     29.86        
Sep 22 08:04 WSW 6   Clear   51 39     64%     29.86        
Sep 22 07:58 WSW 5   Clear   51 39     64%     29.86        
Sep 22 07:52 WSW 8   Clear   51 40     65%     29.85        
Sep 22 07:49 WSW 8   Clear   51 40     65%     29.85        
Sep 22 07:43 SW 6   Clear   50 39     66% 48   29.85        
Sep 22 07:37 WSW 5   Clear   50 40     68% 48   29.85        
Sep 22 07:34 SW 4   Clear   50 40     68% 49   29.85        
Sep 22 07:28 WSW 7   Clear   49 39     69% 46   29.85        
Sep 22 07:25 WSW 7   Clear   49 39     69% 46   29.85        
Sep 22 07:17 WSW 6   Clear   49 39     69% 46   29.85        
Sep 22 07:15 SW 8   Clear   49 39     69% 46   29.84        
Sep 22 07:08 SW 7   Clear   49 39     68% 46   29.84        
Sep 22 07:03 SW 6   Clear   48 38     68% 45   29.84        
Sep 22 07:00 WSW 6   Clear   48 38     68% 45   29.84        
Sep 22 06:53 SW 7   Clear   48 38     68% 45   29.83        
Sep 22 06:47 SW 5   Clear   48 38     68% 46   29.83        
Sep 22 06:44 WSW 6   Clear   48 38     68% 45   29.83        
Sep 22 06:38 WSW 6   Clear   48 38     67% 45   29.83        
Sep 22 06:32 WSW 4   Clear   48 37     65% 47   29.83        
Sep 22 06:29 SW 6   Clear   48 37     65% 45   29.83        
Sep 22 06:24 SW 6   Clear   49 37     64% 46   29.83        
Sep 22 06:20 WSW 5   Clear   49 37     64% 47   29.83        
Sep 22 06:14 WSW 6   Clear   49 37     63% 46   29.83        
Sep 22 06:07 WSW 5   Clear   49 37     63% 47   29.83        
Sep 22 06:04 SW 6   Clear   49 37     63% 46   29.83        
Sep 22 05:58 WSW 5   Clear   49 37     62% 47   29.83        
Sep 22 05:52 WSW 5   Clear   49 37     63% 47   29.82        
Sep 22 05:49 WSW 6   Clear   49 37     63% 46   29.82        
Sep 22 05:43 WSW 5   Clear   49 37     62% 47   29.82        
Sep 22 05:37 SW 6   Clear   49 37     62% 46   29.82        
Sep 22 05:34 SW 7   Clear   49 36     61% 46   29.82        
Sep 22 05:28 SW 6   Clear   49 36     61% 46   29.82        
Sep 22 05:22 SW 8   Clear   50 37     60% 47   29.82        
Sep 22 05:19 SW 7   Clear   50 37     60% 47   29.82        
Sep 22 05:13 SW 7   Clear   50 36     59% 47   29.82        
Sep 22 05:07 SW 8   Clear   50 36     59% 47   29.84        
Sep 22 05:04 SW 7   Clear   50 36     59% 47   29.84        
Sep 22 04:58 SW 6   Clear   50 36     59% 48   29.84        
Sep 22 04:52 SW 6   Clear   49 35     59% 46   29.84        
Sep 22 04:49 SW 6   Clear   50 36     59% 48   29.84        
Sep 22 04:43 WSW 6   Clear   49 35     59% 46   29.84        
Sep 22 04:37 WSW 5   Clear   50 36     59% 48   29.84        
Sep 22 04:34 WSW 5   Clear   50 36     59% 48   29.84        
Sep 22 04:28 SW 6   Clear   50 36     58% 48   29.84        
Sep 22 04:22 WSW 6   Clear   50 36     58% 48   29.83        
Sep 22 04:19 WSW 6   Clear   50 36     58% 48   29.83        
Sep 22 04:13 SW 7   Clear   50 35     57% 47   29.83        
Sep 22 04:07 WSW 7   Clear   51 36     57%     29.83        
Sep 22 04:04 WSW 7   Clear   51 36     57%     29.83        
Sep 22 03:58 SW 8   Clear   51 36     57%     29.83        
Sep 22 03:52 SW 7   Clear   51 36     57%     29.83        
Sep 22 03:49 SW 9   Clear   51 36     57%     29.83        
Sep 22 03:43 SW 8   Clear   51 36     57%     29.83        
Sep 22 03:37 SW 9   Clear   51 37     58%     29.83        
Sep 22 03:34 SW 9   Clear   50 36     59% 46   29.82        
Sep 22 03:25 SW 9   Clear   50 36     59% 46   29.83        
Sep 22 03:22 SW 6   Clear   50 36     59% 48   29.83        
Sep 22 03:19 WSW 5   Clear   50 36     59% 48   29.83        
Sep 22 03:13 WSW 6   Clear   50 36     59% 48   29.82        
Sep 22 03:07 WSW 8   Clear   50 37     60% 47   29.83        
Sep 22 03:04 WSW 5   Clear   50 37     60% 48   29.83        
Sep 22 02:58 WSW 5   Clear   50 37     60% 48   29.83        
Sep 22 02:52 WSW 5   Clear   50 37     60% 48   29.83        
Sep 22 02:49 WSW 8   Clear   50 37     60% 47   29.83        
Sep 22 02:43 WSW 8   Clear   50 36     59% 47   29.83        
Sep 22 02:37 WSW 7   Clear   50 36     58% 47   29.82        
Sep 22 02:34 WSW 8   Clear   50 36     58% 47   29.82        
Sep 22 02:27 WSW 9   Clear   50 36     58% 46   29.82        
Sep 22 02:24 WSW 7   Clear   50 36     58% 47   29.82        
Sep 22 02:18 SW 8   Clear   50 36     58% 47   29.82        
Sep 22 02:12 WSW 6   Clear   50 36     58% 48   29.82        
Sep 22 02:09 WSW 7   Clear   50 36     58% 47   29.81        
Sep 22 02:04 SW 9   Clear   50 36     58% 46   29.82        
Sep 22 01:57 WSW 6   Clear   51 37     59%     29.82        
Sep 22 01:54 WSW 8   Clear   51 37     59%     29.82        
Sep 22 01:48 WSW 7   Clear   51 37     59%     29.81        
Sep 22 01:42 WSW 10   Clear   51 37     59%     29.81        
Sep 22 01:39 WSW 9   Clear   51 37     59%     29.81        
Sep 22 01:33 SW 7   Clear   51 37     59%     29.82        
Sep 22 01:27 WSW 10   Clear   51 37     58%     29.81        
Sep 22 01:24 WSW 11   Clear   51 37     58%     29.81        
Sep 22 01:18 WSW 12   Clear   51 37     58%     29.81        
Sep 22 01:12 WSW 11   Clear   51 36     56%     29.81        
Sep 22 01:09 WSW 10   Clear   51 35     55%     29.81        
Sep 22 01:03 WSW 8   Clear   52 36     55%     29.81        
Sep 22 00:57 WSW 10   Clear   52 36     55%     29.81        
Sep 22 00:54 WSW 12   Clear   52 36     55%     29.81        
Sep 22 00:48 WSW 11   Clear   52 37     56%     29.81        
Sep 22 00:42 WSW 8   Clear   51 36     56%     29.81        
Sep 22 00:39 WSW 9   Clear   51 36     56%     29.81        
Sep 22 00:33 WSW 9   Clear   51 36     57%     29.81        
Sep 22 00:29 WSW 10   Clear   51 36     57%     29.81        
Sep 22 00:20 WSW 7   Clear   51 37     58%     29.82        
Sep 22 00:17 WSW 6   Clear   51 36     57%     29.82        
Sep 22 00:14 WSW 6   Clear   52 37     57%     29.81        
Sep 22 00:08 WSW 9   Clear   52 37     56%     29.8        
Sep 22 00:02 WSW 12   Clear   52 37     56%     29.81        
Sep 21 23:59 WSW 11   Clear   52 37     56%     29.81        
Sep 21 23:53 WSW 10   Clear   52 37     56%     29.82        
Sep 21 23:47 SW 10   Clear   52 37     56%     29.82        
Sep 21 23:44 SW 10   Clear   52 37     56%     29.82        
Sep 21 23:38 SW 9   Clear   52 36     55%     29.82        
Sep 21 23:32 WSW 11   Clear   53 37     54%     29.82        
Sep 21 23:29 WSW 11   Clear   53 36     53%     29.82        
Sep 21 23:23 WSW 12   Clear   53 36     53%     29.82        
Sep 21 23:17 WSW 13   Clear   52 35     53%     29.82        
Sep 21 23:14 WSW 10   Clear   52 35     53%     29.82        
Sep 21 23:08 SW 11   Clear   53 36     52%     29.83        
Sep 21 23:02 SW 8   Clear   53 35     51%     29.83        
Sep 21 22:59 WSW 7   Clear   53 35     50%     29.83        
Sep 21 22:53 WSW 9   Clear   53 34     49%     29.82        
Sep 21 22:47 WSW 9   Clear   54 35     48%     29.81        
Sep 21 22:44 WSW 9   Clear   54 34     47%     29.81        
Sep 21 22:38 WSW 12   Clear   54 34     46%     29.81        
Sep 21 22:29 W 7   Clear   54 33     45%     29.82        
Sep 21 22:24 WSW 12   Clear   54 34     46%     29.82        
Sep 21 22:18 WSW 10   Clear   54 33     45%     29.83        
Sep 21 22:12 WSW 6   Clear   54 33     45%     29.83        
Sep 21 22:09 SW 8   Clear   54 33     45%     29.83        
Sep 21 22:03 WSW 9   Clear   54 33     44%     29.82        
Sep 21 21:57 WSW 9   Clear   54 33     44%     29.82        
Sep 21 21:54 WSW 9   Clear   54 33     45%     29.82        
Sep 21 21:48 WSW 9   Clear   53 32     45%     29.82        
Sep 21 21:42 WSW 12   Clear   54 33     45%     29.82        
Sep 21 21:39 WSW 12   Clear   53 32     45%     29.82        
Sep 21 21:33 W 6   Clear   54 32     43%     29.82        
Sep 21 21:27 WNW 5   Clear   54 31     42%     29.83        
Sep 21 21:21 WSW 3   Clear   55 32     42%     29.83        
Sep 21 21:18 WSW 5   Clear   55 32     42%     29.83        
Sep 21 21:15 WSW 4   Clear   55 32     41%     29.83        
Sep 21 21:09 SW 7   Clear   55 32     41%     29.83        
Sep 21 21:03 WSW 6   Clear   55 32     41%     29.83        
Sep 21 21:00 SW 6   Clear   55 31     40%     29.82        
Sep 21 20:54 W 7   Clear   55 31     40%     29.82        
Sep 21 20:48 WSW 5   Clear   56 33     41%     29.82        
Sep 21 20:42 W 3   Clear   56 33     41%     29.82        
Sep 21 20:39 W 3   Clear   56 33     42%     29.82        
Sep 21 20:33 W 10   Clear   56 34     43%     29.82        
Sep 21 20:30 W 10   Clear   56 34     43%     29.82        
Sep 21 20:21 WNW 12   Clear   57 34     42%     29.81        
Sep 21 20:18 WNW 11   Clear   57 34     42%     29.81        
Sep 21 20:12 WNW 11   Clear   57 33     40%     29.81        
Sep 21 20:09 W 10   Clear   57 33     40%     29.81        
Sep 21 20:03 WNW 10   Clear   57 32     39%     29.81        
Sep 21 19:57 W 9   Clear   57 32     38%     29.81        
Sep 21 19:54 WNW 10   Clear   57 32     38%     29.81        
Sep 21 19:48 WNW 9   Clear   58 33     38%     29.8        
Sep 21 19:42 W 10   Clear   58 33     38%     29.8        
Sep 21 19:39 WNW 12   Clear   58 33     38%     29.8        
Sep 21 19:33 WNW 11   Clear   58 32     37%     29.79        
Sep 21 19:27 W 10   Clear   58 32     37%     29.79        
Sep 21 19:24 WNW 10   Clear   59 32     36%     29.79        
Sep 21 19:18 W 12   Clear   59 32     36%     29.79        
Sep 21 19:12 W 14   Clear   59 32     36%     29.79        
Sep 21 19:09 WNW 11   Clear   59 31     35%     29.79        
Sep 21 19:03 WNW 12   Clear   60 32     35%     29.79        
Sep 21 18:57 WNW 13   Clear   60 32     35%     29.79        
Sep 21 18:54 WNW 11   Clear   60 32     35%     29.79        
Sep 21 18:48 WNW 15   Clear   60 32     34%     29.78        
Sep 21 18:42 WNW 13   Clear   61 33     35%     29.78        
Sep 21 18:39 WNW 17   Clear   61 33     35%     29.78        
Sep 21 18:33 WNW 20   Clear and Windy   62 33     34%     29.78        
Sep 21 18:27 W 14   Clear   62 33     34%     29.78        
Sep 21 18:24 W 17   Clear   63 34     34%     29.78        
Sep 21 18:18 WNW 18   Clear   63 33     32%     29.78        
Sep 21 18:12 WNW 19   Clear   64 32     30%     29.78        
Sep 21 18:09 WNW 19   Clear   64 32     30%     29.78        
Sep 21 18:03 WNW 20   Clear and Windy   65 31     28%     29.78        
Sep 21 17:58 WNW 20   Clear and Windy   65 31     28%     29.77        
Sep 21 17:52 WNW 18   Clear   66 30     26%     29.77        
Sep 21 17:49 WNW 18   Clear   66 29     25%     29.77        
Sep 21 17:43 WNW 18   Clear   66 30     26%     29.77        
Sep 21 17:37 WNW 17   Clear   67 30     25%     29.77        
Sep 21 17:34 WNW 14   Clear   67 30     25%     29.77        
Sep 21 17:28 WNW 14   Clear   66 32     28%     29.8        
Sep 21 17:22 NW 18   Clear   67 33     28%     29.8        
Sep 21 17:19 WNW 17   Clear   67 33     28%     29.8        
Sep 21 17:13 WNW 19   Clear   67 32     27%     29.79        
Sep 21 17:07 WNW 16   Clear   67 34     29%     29.79        
Sep 21 17:04 WNW 19   Clear   67 34     29%     29.79        
Sep 21 16:58 WNW 21   Clear and Windy   67 35     31%     29.79        
Sep 21 16:52 WNW 18   Clear   67 36     32%     29.79        
Sep 21 16:49 WNW 22   Clear and Windy   68 37     32%     29.78        
Sep 21 16:43 WNW 20   Clear and Windy   68 38     33%     29.78        
Sep 21 16:37 WNW 20   Clear and Windy   68 37     32%     29.78        
Sep 21 16:34 WNW 18   Clear   68 38     33%     29.78        
Sep 21 16:28 WNW 22   Clear and Windy   68 38     33%     29.78        
Sep 21 16:22 WNW 20   Clear and Windy   69 39     34%     29.78        
Sep 21 16:19 WNW 19   Clear   69 39     34%     29.78        
Sep 21 16:13 WNW 19   Clear   69 40     35%     29.77        
Sep 21 16:07 WNW 19   Clear   69 41     36%     29.77        
Sep 21 16:04 WNW 17   Clear   69 40     35%     29.77        
Sep 21 15:58 WNW 17   Clear   70 41     35%     29.77        
Sep 21 15:52 WNW 17   Clear   70 41     35%     29.77        
Sep 21 15:49 WNW 17   Clear   70 42     36%     29.78        
Sep 21 15:43 WNW 16   Clear   70 41     35%     29.77        
Sep 21 15:37 W 14   Clear   70 43     37%     29.77        
Sep 21 15:34 WNW 19   Clear   70 43     37%     29.77        
Sep 21 15:28 WNW 16   Clear   70 43     38%     29.78        
Sep 21 15:22 WNW 18   Clear   70 43     38%     29.77        
Sep 21 15:19 WNW 19   Clear   70 43     38%     29.77        
Sep 21 15:13 WNW 17   Clear   71 45     39%   70 29.77        
Sep 21 15:07 WNW 13   Clear   71 44     38%   70 29.77        
Sep 21 15:04 WNW 14   Clear   71 45     39%   70 29.77        
Sep 21 14:58 WNW 13   Clear   70 45     40%     29.77        
Sep 21 14:52 WNW 18   Clear   70 44     39%     29.77        
Sep 21 14:49 WNW 17   Clear   71 45     39%   70 29.78        
Sep 21 14:43 WNW 19   Clear   70 45     40%     29.77        
Sep 21 14:37 W 13   Clear   69 46     43%     29.78        
Sep 21 14:31 W 13   Clear   70 46     42%     29.78        
Sep 21 14:28 W 15   Clear   70 46     43%     29.77        
Sep 21 14:23 W 16   Clear   71 47     43%   70 29.77        
Sep 21 14:17 W 15   Clear   70 46     43%     29.78        
Sep 21 14:14 WNW 25   Clear and Windy   70 46     43%     29.77        
Sep 21 14:08 W 12   Clear   70 47     44%     29.78        
Sep 21 14:04 W 12   Clear   70 48     45%     29.77        
Sep 21 13:58 W 14   Clear   70 48     45%     29.77        
Sep 21 13:52 W 19   Clear   69 48     47%     29.77        
Sep 21 13:49 W 14   Clear   69 48     48%     29.77        
Sep 21 13:43 WSW 12   Clear   68 48     49%     29.77        
Sep 21 13:37 WSW 16   Clear   68 49     50%     29.78        
Sep 21 13:34 WSW 16   Clear   69 49     49%     29.77        
Sep 21 13:28 W 15   Clear   69 50     51%     29.78        
Sep 21 13:22 WSW 18   Clear   69 51     52%     29.78        
Sep 21 13:19 W 15   Clear   68 50     53%     29.78        
Sep 21 13:13 W 13   Clear   68 51     55%     29.79        
Sep 21 13:07 W 19   Clear   67 51     56%     29.79        
Sep 21 13:04 W 14   Clear   67 51     57%     29.79        
Sep 21 12:58 W 14   Clear   67 52     59%     29.8        
Sep 21 12:52 WNW 20   Clear and Windy   65 51     60%     29.8        
Sep 21 12:49 W 17   Clear   65 52     62%     29.8        
Sep 21 12:43 W 16   Clear   65 52     62%     29.8        
Sep 21 12:37 W 19   Clear   64 51     62%     29.8        
Sep 21 12:34 W 11   Clear   64 51     63%     29.8        
Sep 21 12:28 W 13   Clear   64 51     62%     29.8        
Sep 21 12:22 W 17   Clear   64 51     63%     29.8        
Sep 21 12:19 W 12   Clear   64 51     63%     29.81        
Sep 21 12:13 W 19   Clear   64 52     64%     29.81        
Sep 21 12:07 W 16   Clear   64 52     64%     29.81        
Sep 21 12:04 W 16   Clear   63 51     65%     29.8        
Sep 21 11:59 W 16   Clear   63 51     66%              
Sep 21 11:53 W 16   Clear   63 52     67%     29.8        
Sep 21 11:47 WNW 17   Clear   62 51     67%     29.81        
Sep 21 11:44 WNW 19   Clear   62 51     67%     29.81        
Sep 21 11:38 W 19   Clear   63 51     66%     29.81        
Sep 21 11:32 W 18   Clear   64 52     64%     29.81        
Sep 21 11:29 W 21   Clear and Windy   65 51     61%     29.8        
Sep 21 11:23 W 17   Clear   65 50     59%     29.8        
Sep 21 11:17 WSW 15   Clear   66 51     58%     29.8        
Sep 21 11:14 W 12   Clear   66 50     57%     29.8        
Sep 21 11:08 W 14   Clear   67 50     55%     29.8        
Sep 21 11:02 WSW 20   Clear and Windy   68 50     53%     29.8        
Sep 21 10:59 WSW 16   Clear   69 52     54%     29.8        
Sep 21 10:53 WSW 19   Clear   68 51     55%     29.8        
Sep 21 10:47 W 20   Clear and Windy   67 51     56%     29.8        
Sep 21 10:44 WSW 14   Clear   67 51     57%     29.8        
Sep 21 10:38 WSW 15   Clear   67 52     58%     29.8        
Sep 21 10:32 W 17   Clear   67 52     58%     29.8        
Sep 21 10:29 W 16   Clear   67 52     59%     29.8        
Sep 21 10:23 W 14   Clear   67 52     59%     29.8        
Sep 21 10:17 W 16   Clear   66 52     60%     29.8        
Sep 21 10:14 W 19   Clear   66 52     61%     29.8        
Jun 12 05:06 W 10   Clear   48 35     61% 44   29.95        
Jun 12 04:32 W 8   Clear   49 35     58% 46   29.94        
Jun 12 04:08 W 15   Clear   49 36     60% 43   29.93        
Jun 12 02:29 WNW 18   Clear   51 34     52%     29.94        
Jun 11 22:23 WSW 10   Clear   55 45     70%     29.91        
Jun 11 19:34 WNW 17   Clear   63 33     32%     29.84        
Jun 11 13:28 W 19   Clear   68 45     43%     29.81        
Jun 11 11:58 W 18   Clear   67 45     45%     29.8        
Jun 11 09:15 WSW 18   Clear   61 43     51%     29.8        
Jun 11 08:39 WSW 19   Clear   60 43     53%     29.78        
Jun 11 08:30 WSW 17   Clear   60 42     51%     29.78        
Jun 11 07:50 WSW 20   Clear and Windy   56 41     57%     29.78        
Jun 11 07:14 WSW 17   Clear   54 42     63%     29.78        
Jun 11 07:05 WSW 17   Clear   53 41     64%     29.78        
Jun 11 01:02 WSW 15   Clear   59 44     58%     29.76        
Jun 11 00:53 WSW 17   Clear   59 45     59%              
Jun 11 00:47 WSW 20   Clear and Windy   59 44     58%     29.75        
Jun 11 00:32 WSW 18   Clear   60 44     56%              
Jun 11 00:23 WSW 22   Clear and Windy   60 44     56%     29.74        
Jun 11 00:05 SW 12   Clear   60 45     58%              
Jun 10 23:38 WSW 20   Clear and Windy   60 46     59%              
Jun 10 23:23 WSW 19   Clear   61 47     59%              
Jun 10 23:20 WSW 17   Clear   61 47     59%     29.76        
Jun 10 22:17 WSW 15   Clear   61 48     63%     29.78        
Jun 10 21:32 WSW 18   Clear   62 49     62%              
Jun 10 20:38 WSW 18   Clear   63 49     60%     29.76        
Jun 10 19:38 WSW 18   Clear   67 48     50%              
Jun 10 19:32 WSW 16   Clear   67 48     50%     29.75        
Jun 10 18:03 WSW 23   Clear and Windy   70 49     48%     29.74        
Jun 10 17:54 WSW 21   Clear and Windy   71 50     48%   70          
Jun 10 14:16 WSW 16   Clear   75 47     37%   74 29.75        
Jun 10 13:13 W 14   Clear   75 45     34%   74 29.79        
Jun 10 11:43 W 20   Clear and Windy   73 47     39%   72 29.8        
Jun 10 09:34 W 16   Clear   69 48     47%     29.82        
Jun 10 07:33 WSW 9   Clear   61 50     67%     29.81        
Jun 10 00:22 SW 14   Clear   62 52     70%     29.83        
Jun 09 21:04 SW 12   Clear   69 54     58%     29.81        
Notice The following observation data may not be complete
Jun 09 19:40     Clear            %              
Jun 09 18:15 WSW 19   Clear   79 53     40%   78 29.78        
Jun 09 16:42 WSW 15   Clear   83 50     32%   81 29.78        
Jun 09 14:13 SW 19   Clear   84 50     31%   82 29.82        
Jun 09 13:16 WSW 14   Clear   84 49     30%   82 29.87        
Jun 09 13:04 WSW 15   Clear   84 48     29%   82 29.87        
Jun 09 07:27 WSW 8   Clear   65 43     45%     29.89        
Jun 09 07:24 WSW 10   Clear   65 43     45%     29.89        
Jun 09 03:42 SW 10   Clear   63 41     44%     29.88        
Jun 09 00:27 SW 10   Clear   69 33     26%     29.88        
Notice The following observation data may not be complete
Jun 08 23:40     Clear            %              
Jun 08 21:53 W 7   Clear   73 28     19%   71 29.9        
Jun 08 17:37 W 17   Clear   87 37     17%   84 29.88        
Jun 08 09:39 WSW 11   Clear   76 43     31%   75 29.95        
Jun 08 09:12 SW 10   Clear   75 44     33%   74 29.95        
Jun 08 08:27 WSW 9   Clear   70 45     40%     29.95        
Jun 08 08:18 WSW 9   Clear   69 45     42%     29.95        
Jun 08 05:53 SW 9   Clear   63 44     50%     29.93        
Jun 08 05:49 WSW 10   Clear   63 44     50%     29.93        
Jun 08 03:43 WSW 8   Clear   66 43     43%     29.91        
Jun 08 02:50 WSW 11   Clear   67 42     40%     29.91        
Jun 07 22:38 SW 16   Clear   71 40     33%   69 29.89        
Jun 07 20:15 W 8   Clear   79 30     17%   77 29.86        
Jun 07 19:03 WSW 16   Clear   85 25     11%   82 29.84        
Jun 07 18:48 WSW 17   Clear   86 27     12%   82          
Jun 07 11:34 SW 5   Clear   90 31     12%   86 29.91        
Jun 07 07:32 WSW 5   Clear   74 41     30%   73 29.91        
Jun 07 06:44 Calm   Clear   68 39     34%     29.87        
Jun 05 22:28 WSW 8   Clear   75 41     30%   74 29.89        
Jun 05 20:25 WSW 9   Clear   84 44     25%   82 29.86        
Jun 05 13:31 W 7   Clear   96 31     10%   90 29.86        
Jun 05 13:01 WNW 7   Clear   97 31     10%   91 29.87